Вернуться в каталог

STARLINK-1042

АктивенСвязьVLEO
NORAD 44747·PAYLOAD·🇺🇸 United States

Запущен Nov 11, 2019 с Cape Canaveral Space Force Station

Loading…

Ближайшие Пролёты (ближайшие 24 часа)

TLE

СвежийSource: CelesTrak SupGP

Эпоха: Sep 15, 2026, 01:13 UTC

1 44747C 19074AL  26258.05118056  .00028560  00000+0  33371-3 0  2584
2 44747  53.0380 259.5187 0005639  40.0129  58.1756 15.60925416    15

Отслеживайте STARLINK-1042 в реальном времени с AllMySat

Download on the App Store